[[{"header":{"parameterUnit":"m.s-1","parameterCategory":1,"la1":30.2991,"la2":30.254,"lo1":-89.0895,"lo2":-89.0444,"dy":0.0017,"dx":0.0017,"nx":28,"ny":28,"refTime":"2024-08-27T09:00:00:Z","depth":0,"parameterNumber":2,"parameterNumberName":"U-component_of_WINDS"},"data":[0,0,0,0,0,0,0,0,0,0,0,0,0,0,0,0,0,0,0,0,0,0,0,0,0,0,0,0,0,0,0,0,0,0,0,0,0,0,0,0,0,0,0,0,0,0,0,0,0,0,0,0,0,0,0,0,0,0,-0.5831,-0.5831,0,-0.5819,-0.5818,-0.5818,-0.579,-0.579,-0.5789,-0.5788,-0.5776,-0.5777,-0.5777,0,0,0,0,0,0,0,0,0,0,0,0,0,-0.5834,-0.5834,-0.5832,-0.5831,-0.5831,-0.5819,-0.5818,-0.5818,-0.579,-0.579,-0.5789,-0.5788,-0.5776,-0.5777,-0.5777,0,0,0,0,0,0,0,0,0,0,0,0,0,-0.5828,-0.5834,-0.5832,-0.5816,-0.5814,-0.5819,-0.5818,-0.5818,-0.579,-0.579,-0.5789,-0.5788,-0.5776,-0.5777,-0.5777,-0.5796,0,0,-0.5778,-0.5778,0,0,0,0,0,0,0,0,-0.5828,-0.5828,-0.5818,-0.5817,-0.5815,-0.5805,-0.5815,-0.5811,-0.5791,-0.5799,-0.5788,-0.5787,-0.5787,-0.5786,-0.5786,-0.5795,-0.5795,-0.5778,-0.5778,-0.5778,-0.5778,0,0,0,0,0,0,0,-0.5829,-0.5828,-0.5826,-0.5818,-0.5816,-0.581,-0.5808,-0.5814,-0.5798,-0.5799,-0.5797,-0.5795,-0.5786,-0.5785,-0.5785,-0.5795,-0.5778,-0.5778,-0.5778,-0.5778,-0.5821,-0.5822,0,0,0,0,0,0,-0.5831,-0.5829,-0.5827,-0.5826,-0.582,-0.581,-0.5808,-0.5809,-0.5798,-0.5795,-0.5796,-0.5794,-0.5785,-0.5785,-0.5785,-0.5807,-0.5778,-0.5778,-0.5779,-0.582,-0.5821,-0.5822,0,0,0,0,0,0,-0.5832,-0.5831,-0.5827,-0.5827,-0.5826,-0.5811,-0.5812,-0.5809,-0.5809,-0.5796,-0.5793,-0.5799,-0.5785,-0.5784,-0.5794,-0.5807,-0.5779,-0.5779,-0.5819,-0.5821,-0.5822,-0.5853,0,0,0,0,0,0,-0.5832,-0.5832,-0.5838,-0.5827,-0.5826,-0.5836,-0.5813,-0.581,-0.5809,-0.5807,-0.5798,-0.5795,-0.5784,-0.5793,-0.5794,-0.5806,-0.5779,-0.5818,-0.582,-0.5821,-0.585,-0.5855,-0.5859,0,0,0,0,0,-0.5832,-0.5847,-0.5839,-0.5839,-0.5834,-0.5837,-0.5836,-0.5823,-0.5811,-0.5818,-0.5809,-0.5796,-0.5805,-0.5794,-0.5795,-0.5808,-0.5817,-0.5819,-0.5821,-0.5849,-0.5854,-0.5859,0,0,0,0,0,0,-0.5861,-0.5846,-0.5836,-0.5848,-0.5844,-0.5832,-0.5841,-0.5829,-0.5828,-0.5825,-0.5809,-0.5807,-0.5819,-0.5814,-0.5803,-0.5827,-0.5809,-0.5811,-0.5829,-0.5834,-0.5839,-0.584,-0.5779,0,0,0,0,0,-0.5868,-0.5872,-0.5858,-0.5871,-0.5869,-0.5855,-0.5856,-0.5846,-0.5841,-0.5839,-0.5832,-0.5828,-0.583,-0.5832,-0.5833,-0.5849,-0.5848,-0.5858,-0.5863,-0.5866,-0.5869,-0.5878,-0.5884,-0.5829,-0.5829,-0.5829,0,0,-0.5885,-0.5877,-0.588,-0.5876,-0.5872,-0.5876,-0.5854,-0.5859,-0.5863,-0.584,-0.5849,-0.5843,-0.5838,-0.5851,-0.5857,-0.5848,-0.5883,-0.5869,-0.5872,-0.5872,-0.5881,-0.5886,-0.5891,-0.5831,-0.5831,-0.583,0,0,-0.5917,-0.591,-0.592,-0.5917,-0.591,-0.5901,-0.5903,-0.5893,-0.5889,-0.5897,-0.5881,-0.5885,-0.5888,-0.5886,-0.5885,-0.5917,-0.5905,-0.5918,-0.594,-0.595,-0.5954,-0.5958,-0.597,-0.5975,-0.592,-0.592,-0.592,0,-0.5938,-0.5943,-0.5927,-0.5934,-0.5934,-0.5913,-0.5924,-0.5921,-0.5915,-0.5916,-0.5905,-0.591,-0.5905,-0.5918,-0.5926,-0.5926,-0.5929,-0.5919,-0.5954,-0.5958,-0.5961,-0.5973,-0.5978,-0.5922,-0.5922,-0.5921,-0.5921,0,-0.597,-0.5974,-0.5983,-0.5979,-0.5979,-0.5988,-0.5974,-0.5976,-0.5966,-0.5958,-0.5968,-0.5961,-0.5961,-0.5963,-0.5953,-0.5976,-0.597,-0.5957,-0.5939,-0.5969,-0.598,-0.5984,-0.5924,-0.5924,-0.5923,-0.5923,0,0,-0.602,-0.6007,-0.601,-0.6009,-0.6,-0.6004,-0.6012,-0.6011,-0.6015,-0.6011,-0.6019,-0.6023,-0.6011,-0.601,-0.6,-0.6008,-0.6036,-0.5994,-0.5994,-0.6003,-0.6061,-0.6072,-0.6077,-0.6027,-0.6028,-0.6028,-0.6062,0,-0.6051,-0.6064,-0.605,-0.6067,-0.6071,-0.6052,-0.6059,-0.6055,-0.6048,-0.6052,-0.6044,-0.6048,-0.6031,-0.6031,-0.6038,-0.6031,-0.6047,-0.6028,-0.6035,-0.6035,-0.6038,-0.6083,-0.6094,-0.6126,-0.6066,-0.6067,-0.6067,0,-0.6089,-0.6088,-0.6105,-0.6096,-0.6098,-0.6104,-0.6104,-0.6107,-0.6102,-0.6097,-0.6096,-0.6084,-0.6092,-0.6074,-0.6086,-0.6073,-0.6075,-0.6072,-0.6073,-0.6074,-0.6054,-0.6087,-0.6136,-0.6142,-0.6074,-0.6073,-0.6073,0,-0.6126,-0.6128,-0.6139,-0.6138,-0.6128,-0.6133,-0.6129,-0.6124,-0.6125,-0.6125,-0.6126,-0.6126,-0.6127,-0.6128,-0.6116,-0.6104,-0.613,-0.6111,-0.6127,-0.6127,-0.6134,-0.6134,-0.6186,-0.6133,-0.6133,-0.6133,-0.6133,0,-0.6163,-0.6174,-0.6155,-0.6162,-0.6175,-0.6159,-0.6172,-0.6166,-0.6162,-0.6168,-0.6151,-0.6157,-0.614,-0.6145,-0.6136,-0.6148,-0.6148,-0.6144,-0.6142,-0.6147,-0.6147,-0.6149,-0.6147,-0.6134,-0.6134,-0.6134,-0.6134,0,-0.6206,-0.6194,-0.6204,-0.6194,-0.6192,-0.6202,-0.6193,-0.62,-0.6191,-0.6199,-0.62,-0.6188,-0.6192,-0.6181,-0.6183,-0.6177,-0.6195,-0.6189,-0.6197,-0.6195,-0.6213,-0.6212,-0.6269,-0.6276,-0.6217,-0.6218,-0.6218,0,-0.6231,-0.6239,-0.623,-0.6233,-0.623,-0.6234,-0.6235,-0.622,-0.6222,-0.6219,-0.6226,-0.6229,-0.6231,-0.6239,-0.6231,-0.6233,-0.6227,-0.6247,-0.6227,-0.6232,-0.6229,-0.6229,-0.6231,-0.6251,-0.6252,-0.6252,-0.6253,0,-0.6277,-0.6271,-0.6273,-0.6273,-0.6275,-0.6275,-0.6273,-0.6277,-0.6261,-0.6264,-0.6269,-0.627,-0.6273,-0.6277,-0.6277,-0.6274,-0.6262,-0.6259,-0.6263,-0.6269,-0.6274,-0.6273,-0.6209,-0.6258,-0.6257,-0.6257,-0.6257,-0.6257,-0.6313,-0.632,-0.6315,-0.6318,-0.6315,-0.6315,-0.632,-0.6313,-0.6316,-0.6318,-0.6309,-0.6315,-0.6312,-0.6311,-0.6309,-0.6315,-0.6306,-0.6312,-0.6313,-0.6315,-0.6319,-0.6272,-0.6315,-0.6314,-0.6314,-0.6314,-0.6314,0,-0.6359,-0.6355,-0.6358,-0.6357,-0.636,-0.6347,-0.6345,-0.6348,-0.6354,-0.6352,-0.6354,-0.636,-0.6364,-0.6356,-0.6358,-0.6364,-0.6359,-0.6366,-0.6366,-0.6366,-0.6326,-0.6323,-0.637,-0.637,-0.637,-0.637,-0.637,-0.637,-0.6384,-0.6396,-0.6389,-0.6399,-0.6395,-0.6402,-0.6402,-0.6401,-0.6399,-0.6406,-0.6409,-0.6404,-0.64,-0.6402,-0.6405,-0.6403,-0.6405,-0.6415,-0.6411,-0.6374,-0.6368,-0.6363,-0.636,-0.6415,-0.6415,-0.645,-0.645,-0.6451]},{"header":{"parameterUnit":"m.s-1","parameterCategory":1,"la1":30.2991,"la2":30.254,"lo1":-89.0895,"lo2":-89.0444,"dy":0.0017,"dx":0.0017,"nx":28,"ny":28,"refTime":"2024-08-27T09:00:00:Z","depth":0,"parameterNumber":3,"parameterNumberName":"V-component_of_WINDS"},"data":[0,0,0,0,0,0,0,0,0,0,0,0,0,0,0,0,0,0,0,0,0,0,0,0,0,0,0,0,0,0,0,0,0,0,0,0,0,0,0,0,0,0,0,0,0,0,0,0,0,0,0,0,0,0,0,0,0,0,1.5184,1.5184,0,1.5187,1.5187,1.5187,1.5182,1.5182,1.5182,1.5181,1.5184,1.5184,1.5185,0,0,0,0,0,0,0,0,0,0,0,0,0,1.5173,1.5173,1.5184,1.5184,1.5184,1.5187,1.5187,1.5187,1.5182,1.5182,1.5182,1.5181,1.5184,1.5184,1.5185,0,0,0,0,0,0,0,0,0,0,0,0,0,1.5177,1.5173,1.5184,1.5182,1.5182,1.5187,1.5187,1.5187,1.5182,1.5182,1.5182,1.5181,1.5184,1.5184,1.5185,1.5192,0,0,1.5186,1.5186,0,0,0,0,0,0,0,0,1.5177,1.5177,1.5182,1.5182,1.5182,1.5184,1.5184,1.5189,1.5182,1.5182,1.5181,1.5181,1.5184,1.5185,1.5186,1.5192,1.5192,1.5186,1.5186,1.5186,1.5186,0,0,0,0,0,0,0,1.5176,1.5177,1.5185,1.5182,1.5182,1.5181,1.5181,1.5185,1.5184,1.5182,1.5182,1.5182,1.5184,1.5185,1.5186,1.5192,1.5186,1.5186,1.5186,1.5186,1.5205,1.5205,0,0,0,0,0,0,1.5177,1.5177,1.5185,1.5185,1.5179,1.5181,1.5181,1.5184,1.5184,1.5184,1.5182,1.5182,1.5185,1.5185,1.5186,1.5194,1.5186,1.5186,1.5187,1.5204,1.5205,1.5205,0,0,0,0,0,0,1.5176,1.5177,1.5185,1.5181,1.5182,1.5181,1.5184,1.5184,1.5185,1.5185,1.5185,1.5184,1.5185,1.5185,1.5191,1.5194,1.5187,1.5187,1.5204,1.5205,1.5205,1.5211,0,0,0,0,0,0,1.5176,1.5177,1.518,1.5181,1.5182,1.519,1.5184,1.5184,1.5186,1.5185,1.5186,1.5186,1.5185,1.519,1.5191,1.5194,1.5187,1.5204,1.5204,1.5205,1.5211,1.5212,1.5213,0,0,0,0,0,1.5176,1.5182,1.518,1.5181,1.5186,1.519,1.5191,1.5189,1.5186,1.5189,1.5189,1.5186,1.5194,1.5191,1.5191,1.5195,1.5204,1.5204,1.5205,1.521,1.5211,1.5213,0,0,0,0,0,0,1.5181,1.5182,1.518,1.5187,1.5189,1.5189,1.5193,1.5191,1.5193,1.5192,1.519,1.519,1.5196,1.5196,1.5193,1.5202,1.5198,1.5199,1.5202,1.5203,1.5204,1.5204,1.5187,0,0,0,0,0,1.5183,1.5187,1.5187,1.5193,1.5194,1.5193,1.5195,1.5194,1.5195,1.5196,1.5196,1.5197,1.52,1.5202,1.5204,1.5211,1.5211,1.5214,1.5215,1.5216,1.5216,1.5219,1.5221,1.5207,1.5207,1.5207,0,0,1.5187,1.5188,1.519,1.5194,1.5195,1.5198,1.5194,1.5198,1.52,1.5196,1.5201,1.5201,1.5202,1.5208,1.5211,1.5209,1.522,1.5217,1.5217,1.5217,1.522,1.5221,1.5223,1.5208,1.5207,1.5207,0,0,1.5196,1.5198,1.5202,1.5204,1.5205,1.5205,1.5206,1.5207,1.5207,1.5212,1.5209,1.5212,1.5217,1.5217,1.5219,1.5228,1.5225,1.5229,1.5234,1.5237,1.5238,1.5239,1.5242,1.5243,1.523,1.523,1.523,0,1.5201,1.5206,1.5205,1.5209,1.5211,1.5208,1.5212,1.5213,1.5216,1.5217,1.5214,1.522,1.5221,1.5227,1.5229,1.523,1.5231,1.5229,1.5238,1.5239,1.524,1.5243,1.5244,1.523,1.523,1.523,1.523,0,1.5212,1.5216,1.5219,1.5222,1.5224,1.5228,1.5227,1.5229,1.5228,1.5228,1.5232,1.5233,1.5236,1.5237,1.5236,1.5243,1.5241,1.5239,1.5234,1.5242,1.5244,1.5245,1.5231,1.523,1.523,1.523,0,0,1.5224,1.5226,1.5227,1.5228,1.523,1.5232,1.5236,1.5239,1.5241,1.5242,1.5245,1.525,1.5247,1.5249,1.5247,1.525,1.5257,1.5247,1.5247,1.5248,1.5264,1.5265,1.5267,1.5256,1.5256,1.5256,1.5264,0,1.5233,1.524,1.5239,1.5245,1.5248,1.5246,1.5249,1.5251,1.525,1.5253,1.5253,1.5256,1.5253,1.5253,1.5256,1.5256,1.526,1.5255,1.5258,1.5258,1.5257,1.5268,1.527,1.5277,1.5265,1.5265,1.5265,0,1.5243,1.5246,1.5253,1.5254,1.5255,1.5258,1.526,1.5263,1.5264,1.5264,1.5265,1.5263,1.5267,1.5263,1.5268,1.5265,1.5266,1.5266,1.5266,1.5266,1.5261,1.5267,1.5279,1.528,1.5267,1.5266,1.5266,0,1.5251,1.5255,1.526,1.5261,1.5263,1.5265,1.5265,1.5267,1.5268,1.527,1.5271,1.5273,1.5274,1.5276,1.5275,1.5272,1.528,1.5276,1.5279,1.5279,1.528,1.528,1.5292,1.5282,1.5282,1.5282,1.5282,0,1.526,1.5264,1.5263,1.5266,1.5271,1.527,1.5274,1.5275,1.5276,1.5278,1.5276,1.5279,1.5277,1.528,1.5279,1.5283,1.5284,1.5283,1.5283,1.5283,1.5283,1.5283,1.5282,1.5283,1.5283,1.5282,1.5282,0,1.5268,1.5268,1.5273,1.5274,1.5275,1.5278,1.5279,1.5281,1.5281,1.5284,1.5285,1.5285,1.5287,1.5287,1.529,1.5289,1.5294,1.5293,1.5293,1.5293,1.5296,1.5296,1.5308,1.5309,1.5299,1.5299,1.53,0,1.5274,1.5277,1.5279,1.528,1.5281,1.5284,1.5286,1.5285,1.5286,1.5288,1.529,1.5293,1.5295,1.5299,1.5299,1.5301,1.53,1.5304,1.53,1.53,1.5299,1.5299,1.5299,1.5305,1.5305,1.5305,1.5305,0,1.5284,1.5283,1.5286,1.5288,1.529,1.5292,1.5294,1.5295,1.5294,1.5296,1.5299,1.5301,1.5304,1.5306,1.5308,1.5308,1.5306,1.5306,1.5307,1.5307,1.5307,1.5306,1.5295,1.5306,1.5306,1.5306,1.5306,1.5306,1.529,1.5293,1.5294,1.5297,1.5298,1.53,1.5302,1.5302,1.5305,1.5307,1.5307,1.531,1.5311,1.5313,1.5314,1.5316,1.5314,1.5316,1.5316,1.5316,1.5316,1.5307,1.5316,1.5316,1.5316,1.5316,1.5316,0,1.5299,1.53,1.5303,1.5305,1.5307,1.5306,1.5307,1.5309,1.5312,1.5313,1.5315,1.5318,1.5321,1.5321,1.5323,1.5325,1.5324,1.5325,1.5325,1.5325,1.5318,1.5317,1.5326,1.5326,1.5326,1.5326,1.5326,1.5326,1.5304,1.5308,1.5308,1.5313,1.5314,1.5317,1.5318,1.5319,1.532,1.5324,1.5326,1.5326,1.5327,1.5329,1.5331,1.5331,1.5331,1.5333,1.5333,1.5326,1.5325,1.5324,1.5323,1.5333,1.5333,1.5339,1.5339,1.5339]}]]